GB-0332 weather

Bowerchalke Airfield
Bowerchalke, England, United Kingdom

Public forecast

Using degrees Celsius for public forecast. Weather courtesy of forecast.io.

Closest aviation weather report (METAR) to Bowerchalke Airfield

Closest report is Bournemouth Airport, 13.5 nm (24.9 km) SSE. Retrieved 2020/06/06 09:20 UTC (43 minutes ago):

EGHH 060920Z 28019KT 250V320 9999 BKN037 15/04 Q1001

Closest aviation forecast (TAF) to Bowerchalke Airfield

Forecast is more than 12 hours old.

Closest forecast is Bournemouth Airport, 13.5 nm (24.9 km) SSE. Retrieved 2020/02/21 21:06 UTC (4 months ago):

TAF EGHH 210200Z 2021/2123 CNL